Weather History for KCON - March, 2013

Change the Weather History Date:

Tuesday, March 5, 2013

  Actual Average Record
Temperature  
Mean Temperature 34 °F 29 °F  
Max Temperature 42 °F 40 °F 67 °F (1880)
Min Temperature 26 °F 19 °F -16 °F (1872)
Degree Days  
Heating Degree Days 31 36  
Month to date heating degree days 162 182  
Since 1 July heating degree days 5091 5442  
Cooling Degree Days 0 0  
Month to date cooling degree days 0 0  
Year to date cooling degree days 0 0  
Moisture  
Dew Point 24 °F    
Average Humidity 66    
Maximum Humidity 82    
Minimum Humidity 49    
Precipitation  
Precipitation T in 0.10 in 1.09 in (1929)
Month to date precipitation 0.04 0.49  
Year to date precipitation 5.13 5.81  
Snow  
Snow 0.00 in 0.40 in 6.60 in (1952)
Month to date snowfall 0.5 2.2  
Since 1 July snowfall 67.7 49.7  
Snow Depth 12.00 in    
Sea Level Pressure  
Sea Level Pressure 29.97 in    
Wind  
Wind Speed 6 mph (NNW)    
Max Wind Speed 15 mph    
Max Gust Speed 21 mph    
Visibility 10 miles    
Events      
T = Trace of Precipitation, MM = Missing Value Source: NWS Daily Summary

Daily Weather History Graph

Daily Weather History Graph

Search for Another Location

Airport or City:

Trip Planner

Search our weather history database for the weather conditions in past years. The results will help you decide how hot, cold, wet, or windy it might be!

Date:

Astronomy

Mar. 05, 2013 Rise Set
Actual Time 6:15 AM EST 5:40 PM EST
Civil Twilight 5:46 AM EST 6:08 PM EST
Nautical Twilight 5:13 AM EST 6:41 PM EST
Astronomical Twilight 4:40 AM EST 7:15 PM EST
Moon 1:31 AM EST (3/5) 11:09 AM EST (3/5)
Length of Visible Light 12h 22m
Length of Day
11h 25m
Last Quarter, 41% of the Moon is Illuminated
Mar 5
Last Quarter
Mar 11
New
Mar 19
First Quarter
Mar 27
Full
Apr 3
Last Quarter

Hourly Weather History & Observations

Time (EST) Temp. Windchill Dew Point Humidity Pressure Visibility Wind Dir Wind Speed Gust Speed Precip Events Conditions
12:51 AM 27.0 °F 16.7 °F 19.0 °F 72% 29.80 in 10.0 mi NW 11.5 mph 20.7 mph N/A   Scattered Clouds
2:51 AM 27.0 °F 17.3 °F 19.0 °F 72% 29.82 in 10.0 mi NW 10.4 mph - N/A   Clear
3:51 AM 26.1 °F 16.8 °F 19.0 °F 75% 29.85 in 10.0 mi NW 9.2 mph - N/A   Mostly Cloudy
4:51 AM 27.0 °F 18.0 °F 19.0 °F 72% 29.88 in 10.0 mi NW 9.2 mph - N/A   Overcast
5:51 AM 28.0 °F 20.0 °F 19.9 °F 72% 29.90 in 10.0 mi NW 8.1 mph - N/A   Overcast
6:51 AM 28.0 °F 20.0 °F 19.9 °F 72% 29.92 in 10.0 mi NNW 8.1 mph - N/A   Overcast
7:51 AM 30.0 °F 22.4 °F 21.0 °F 69% 29.95 in 10.0 mi NW 8.1 mph - N/A   Overcast
8:51 AM 30.2 °F 24.3 °F 21.2 °F 69% 29.94 in 10.0 mi NNW 5.8 mph - N/A   Overcast
9:51 AM 34.0 °F 25.0 °F 23.0 °F 64% 29.97 in 10.0 mi NW 12.7 mph - N/A   Overcast
10:51 AM 36.0 °F 28.5 °F 24.1 °F 62% 29.96 in 10.0 mi WNW 10.4 mph - N/A   Mostly Cloudy
11:51 AM 39.0 °F 32.8 °F 24.1 °F 55% 29.96 in 10.0 mi WNW 9.2 mph - N/A   Partly Cloudy
12:51 PM 42.1 °F 37.1 °F 25.0 °F 51% 29.96 in 10.0 mi North 8.1 mph - N/A   Overcast
1:51 PM 41.0 °F 37.1 °F 26.1 °F 55% 29.98 in 10.0 mi North 5.8 mph - N/A   Overcast
2:51 PM 42.1 °F 37.7 °F 25.0 °F 51% 29.99 in 10.0 mi NE 6.9 mph - N/A   Overcast
3:51 PM 42.1 °F - 25.0 °F 51% 30.00 in 10.0 mi Calm Calm - N/A   Overcast
4:51 PM 42.1 °F 38.4 °F 25.0 °F 51% 30.02 in 10.0 mi North 5.8 mph - N/A   Overcast
5:51 PM 39.9 °F 36.7 °F 28.9 °F 65% 30.04 in 10.0 mi North 4.6 mph - N/A   Overcast
6:51 PM 37.0 °F - 28.9 °F 73% 30.05 in 10.0 mi Calm Calm - N/A   Clear
7:51 PM 36.0 °F - 28.9 °F 76% 30.07 in 10.0 mi Calm Calm - N/A   Overcast
8:51 PM 35.1 °F - 30.0 °F 82% 30.07 in 10.0 mi Calm Calm - N/A   Overcast
9:51 PM 33.1 °F - 28.9 °F 85% 30.07 in 10.0 mi Calm Calm - 0.00 in   Overcast
10:51 PM 34.0 °F - 28.9 °F 82% 30.08 in 10.0 mi Calm Calm - N/A   Overcast
11:27 PM 35.6 °F - 30.2 °F 81% 30.07 in 10.0 mi Calm Calm - N/A   Overcast
11:51 PM 35.1 °F 31.0 °F 30.0 °F 82% 30.09 in 10.0 mi NNE 4.6 mph - N/A   Overcast